Date String (YYYY-MM-DD hh:mm:ss) UTC,Instrument flags,Ambient pressure (hPa),Sample flow (lpm),Bypass flow (lpm),Sample temperature (°C),Ambient temperature (°C),ASC tube jacket temperature (°C),LED temperature (°C),Box temperature (°C),Sample RH (%),Span deviation,Mass concentration (μg/m³),Mass concentration (μg/m³),Mass concentration (μg/m³)
DateTimeUTC,F1_M11,P_M11,Q1_M11,Q2_M11,T1_M11,T2_M11,T3_M11,T4_M11,T5_M11,U1_M11,ZSPAN_M11,X0_M11,X2_M11,X1_M11
2023-02-25 08:00:00,,0825.4,4.97,0.00,22.2,20.9,00.0,31.0,23.8,08.5,0000.0,0007.61,0003.92,0003.61
2023-02-25 08:01:00,,0825.4,5.01,0.00,22.2,20.8,00.0,31.0,23.7,08.5,0000.0,0007.36,0003.94,0003.64
2023-02-25 08:02:00,,0825.5,5.00,0.00,22.2,20.6,00.0,31.0,23.7,08.4,0000.0,0007.75,0003.92,0003.66
2023-02-25 08:03:00,,0825.5,5.00,0.00,22.1,20.4,00.0,31.0,23.7,08.4,0000.0,0007.94,0003.96,0003.71
2023-02-25 08:04:00,,0825.5,5.01,0.00,22.1,20.2,00.0,30.9,23.7,08.4,0000.0,0008.09,0004.05,0003.79
2023-02-25 08:05:00,,0825.6,5.01,0.00,22.1,20.1,00.0,30.9,23.6,08.4,0000.0,0008.18,0004.12,0003.84
2023-02-25 08:06:00,,0825.6,5.02,0.00,22.0,20.3,00.0,30.9,23.6,08.7,0000.0,0008.27,0004.16,0003.85
2023-02-25 08:07:00,,0825.7,4.99,0.00,22.1,21.5,00.0,30.9,23.9,08.7,0000.0,0008.22,0004.15,0003.85
2023-02-25 08:08:00,,0825.7,5.04,0.00,22.2,22.6,00.0,30.9,24.1,08.6,0000.0,0007.54,0004.18,0003.87
2023-02-25 08:09:00,,0825.7,4.96,0.00,22.3,22.6,00.0,30.9,24.2,08.6,0000.0,0007.68,0004.15,0003.87
2023-02-25 08:10:00,,0825.6,5.01,0.00,22.3,22.1,00.0,30.9,24.1,08.6,0000.0,0007.82,0004.18,0003.88
2023-02-25 08:11:00,,0825.6,5.01,0.00,22.3,21.6,00.0,31.0,24.0,08.5,0000.0,0008.03,0004.23,0003.91
2023-02-25 08:12:00,,0825.6,5.00,0.00,22.3,21.2,00.0,31.0,23.8,08.6,0000.0,0008.35,0004.33,0003.95
2023-02-25 08:13:00,,0825.7,4.99,0.00,22.2,21.0,00.0,31.0,23.8,08.7,0000.0,0008.39,0004.43,0004.03
2023-02-25 08:14:00,,0825.7,4.98,0.00,22.2,20.7,00.0,31.0,23.8,08.7,0000.0,0008.73,0004.56,0004.15
2023-02-25 08:15:00,,0825.7,5.01,0.00,22.2,20.6,00.0,31.0,23.7,09.0,0000.0,0009.61,0005.17,0004.72
2023-02-25 08:16:00,,0825.7,5.00,0.00,22.1,20.5,00.0,31.0,23.7,09.2,0000.0,0010.74,0006.07,0005.59
2023-02-25 08:17:00,,0825.7,5.00,0.00,22.1,20.4,00.0,30.9,23.7,09.3,0000.0,0012.20,0007.01,0006.52
2023-02-25 08:18:00,,0825.6,4.98,0.00,22.1,20.3,00.0,30.9,23.7,09.2,0000.0,0013.62,0007.83,0007.29
2023-02-25 08:19:00,,0825.6,4.98,0.00,22.1,20.3,00.0,30.9,23.6,09.1,0000.0,0014.84,0008.43,0007.87
2023-02-25 08:20:00,,0825.6,5.00,0.00,22.1,20.8,00.0,30.9,23.7,09.0,0000.0,0015.23,0008.78,0008.20
2023-02-25 08:21:00,,0825.7,4.96,0.00,22.2,22.0,00.0,30.9,24.1,08.9,0000.0,0015.53,0009.13,0008.58
2023-02-25 08:22:00,,0825.7,4.93,0.00,22.3,22.9,00.0,30.9,24.3,08.9,0000.0,0015.66,0009.33,0008.79
2023-02-25 08:23:00,,0825.6,4.96,0.00,22.4,22.8,00.0,30.9,24.3,08.8,0000.0,0015.76,0009.51,0008.99
2023-02-25 08:24:00,,0825.6,4.99,0.00,22.4,22.3,00.0,31.0,24.3,08.8,0000.0,0016.05,0009.84,0009.31
2023-02-25 08:25:00,,0825.6,5.00,0.00,22.4,21.9,00.0,31.0,24.1,09.0,0000.0,0016.25,0010.38,0009.84
2023-02-25 08:26:00,,0825.6,5.00,0.00,22.4,21.4,00.0,31.0,24.0,09.3,0000.1,0016.90,0010.95,0010.35
2023-02-25 08:27:00,,0825.6,5.03,0.00,22.3,21.2,00.0,31.0,24.0,09.5,0000.2,0017.42,0011.40,0010.81
2023-02-25 08:28:00,,0825.6,4.98,0.00,22.3,21.0,00.0,31.0,24.0,09.5,0000.0,0017.56,0011.69,0011.09
2023-02-25 08:29:00,,0825.5,5.00,0.00,22.3,20.8,00.0,31.0,23.9,09.4,0000.2,0017.51,0011.93,0011.35
2023-02-25 08:30:00,,0825.5,5.00,0.00,22.3,20.7,00.0,31.0,23.8,09.3,0000.0,0017.34,0012.10,0011.51
2023-02-25 08:31:00,,0825.6,5.00,0.00,22.2,20.6,00.0,31.0,23.8,09.3,0000.5,0017.98,0012.70,0012.07
2023-02-25 08:32:00,,0825.6,5.01,0.00,22.2,20.5,00.0,31.0,23.8,09.2,0002.6,0018.55,0013.07,0012.42
2023-02-25 08:33:00,,0825.6,5.00,0.00,22.2,20.5,00.0,31.0,23.8,09.0,0003.2,0018.66,0013.13,0012.47
2023-02-25 08:34:00,,0825.6,5.00,0.00,22.2,20.4,00.0,31.0,23.8,09.2,0003.3,0019.04,0013.41,0012.70
2023-02-25 08:35:00,,0825.5,4.99,0.00,22.1,20.4,00.0,31.0,23.8,09.3,0003.3,0019.66,0013.83,0013.11
2023-02-25 08:36:00,,0825.5,5.01,0.00,22.1,20.8,00.0,30.9,23.8,09.1,0003.5,0019.13,0013.41,0012.71
2023-02-25 08:37:00,,0825.5,4.98,0.00,22.2,22.0,00.0,30.9,24.1,09.0,0003.5,0017.68,0012.33,0011.71
2023-02-25 08:38:00,,0825.6,4.93,0.00,22.4,23.0,00.0,31.0,24.4,08.9,0003.8,0016.00,0010.98,0010.41
2023-02-25 08:39:00,,0825.5,4.98,0.00,22.4,22.8,00.0,31.0,24.4,09.0,0004.3,0014.53,0009.74,0009.18
2023-02-25 08:40:00,,0825.6,5.00,0.00,22.5,22.3,00.0,31.0,24.3,09.0,0001.0,0013.52,0008.69,0008.18
2023-02-25 08:41:00,,0825.6,4.98,0.00,22.4,21.9,00.0,31.1,24.2,09.0,0000.0,0012.47,0007.90,0007.42
2023-02-25 08:42:00,,0825.6,4.99,0.00,22.4,21.6,00.0,31.1,24.1,09.0,0000.0,0011.64,0007.27,0006.80
2023-02-25 08:43:00,,0825.6,5.01,0.00,22.4,21.3,00.0,31.1,24.0,09.2,0000.0,0011.73,0007.41,0006.93
2023-02-25 08:44:00,,0825.6,5.04,0.00,22.4,21.1,00.0,31.1,24.0,09.4,0000.0,0012.71,0008.27,0007.78
2023-02-25 08:45:00,,0825.5,5.00,0.00,22.3,20.9,00.0,31.1,24.0,09.4,0000.0,0013.45,0008.87,0008.37
2023-02-25 08:46:00,,0825.4,5.00,0.00,22.3,20.8,00.0,31.1,23.9,09.4,0000.0,0013.61,0009.04,0008.55
2023-02-25 08:47:00,,0825.4,5.00,0.00,22.3,20.7,00.0,31.1,23.9,09.3,0000.0,0014.38,0009.74,0009.27
2023-02-25 08:48:00,,0825.5,5.03,0.00,22.3,20.6,00.0,31.1,23.9,09.3,0000.0,0015.49,0010.58,0010.08
2023-02-25 08:49:00,,0825.5,4.99,0.00,22.2,20.6,00.0,31.0,23.9,09.3,0000.0,0016.70,0011.49,0010.96
2023-02-25 08:50:00,,0825.4,4.98,0.00,22.2,20.5,00.0,31.0,23.8,09.4,-001.2,0017.88,0012.54,0011.92
2023-02-25 08:51:00,,0825.4,5.00,0.00,22.2,20.9,00.0,31.0,23.9,09.4,-000.9,0018.96,0013.69,0013.04
2023-02-25 08:52:00,,0825.4,4.99,0.00,22.3,22.1,00.0,31.0,24.2,09.3,-000.8,0020.38,0014.74,0014.02
2023-02-25 08:53:00,,0825.3,5.05,0.00,22.4,23.0,00.0,31.0,24.4,09.2,-000.3,0021.25,0015.36,0014.66
2023-02-25 08:54:00,,0825.3,5.04,0.00,22.5,22.8,00.0,31.1,24.5,09.1,-000.0,0021.02,0015.15,0014.50
2023-02-25 08:55:00,,0825.3,5.02,0.00,22.5,22.3,00.0,31.1,24.4,09.1,0000.4,0020.18,0014.47,0013.85
2023-02-25 08:56:00,,0825.3,5.00,0.00,22.5,21.9,00.0,31.1,24.3,09.1,0000.4,0019.21,0013.80,0013.22
2023-02-25 08:57:00,,0825.3,5.02,0.00,22.5,21.5,00.0,31.1,24.2,09.1,0001.0,0018.80,0013.45,0012.88
2023-02-25 08:58:00,,0825.3,4.95,0.00,22.5,21.2,00.0,31.1,24.1,09.1,0001.2,0018.17,0012.90,0012.34
2023-02-25 08:59:00,,0825.3,5.00,0.00,22.4,21.0,00.0,31.1,24.1,09.1,0001.6,0017.32,0012.18,0011.65
